Tracking 31027 objects as of 19-Jul-2025
HD Live streaming from Space Station
objects crossing your sky now

HULIANWANG DIGUI-11

Track HULIANWANG DIGUI-11 now!
10-day predictions


NORAD ID: 62971
Int'l Code: 2025-030A
Perigee: 1,156.0 km
Apogee: 1,156.9 km
Inclination: 50.0 °
Period: 108.3 minutes
Semi major axis: 7527 km
RCS: Unknown
Launch date: February 11, 2025
Source: People's Republic of China (PRC)
Launch site: Wenchang Satellite Launch Center (WSC)
Your satellite tracking list
FENGYUN 1C DEB
Track 1 satellite(s)




NASA's NSSDC Master Catalog

Two Line Element Set (TLE):
1 62971U 25030A   25199.89040364 -.00000102  00000-0  47391-4 0  9997
2 62971  50.0025 351.2887 0000652 200.3361 159.7485 13.29325724 21528
Source of the keplerian elements: AFSPC